Theta_e
330 330 332 331 330 330 328 330 331 330 330 331 331 331 330 330 330 330 330 330 329 329 329 329 331 332 332 332 332 332 332 332 332 332 332 329 323 320 317 312 310 311 315 318 318 318 318 320 317 312 309 307 308 308 307 306 306 306 306 306 305 305 305 305 305 305 305 305 305 305 306 306 306 306 307 307 307 307 307 307 307 307 307 307 307
332 332 332 331 330 330 329 329 330 330 331 333 333 332 332 331 330 330 329 330 329 328 329 329 331 332 332 331 331 331 331 331 332 332 332 330 326 323 319 315 313 311 312 315 315 313 314 318 317 312 310 308 307 307 307 307 307 306 306 306 306 305 305 304 304 304 304 305 305 305 305 305 306 306 306 306 306 307 307 307 307 307 307 307 307
331 332 332 329 330 330 329 329 328 329 332 333 333 333 332 331 331 331 331 331 330 327 328 329 330 331 330 331 330 331 331 331 332 332 332 331 329 327 324 318 317 315 314 314 313 311 311 313 314 312 311 312 312 311 309 309 309 309 308 308 307 306 306 305 305 304 304 304 304 304 305 305 305 305 306 306 306 307 307 307 307 307 307 307 307
330 331 330 329 330 330 328 328 326 327 331 332 334 333 332 332 331 331 331 330 329 328 329 329 330 330 329 330 330 330 331 332 332 332 332 332 330 330 327 323 320 320 318 316 314 312 312 312 314 314 314 316 316 316 315 313 312 312 312 311 310 308 306 306 305 304 304 304 304 304 304 304 304 305 305 306 306 307 307 307 307 307 307 307 307
330 329 328 328 330 330 330 329 326 328 331 332 333 334 333 332 331 330 331 330 330 329 328 329 330 330 329 330 330 329 330 330 330 330 331 331 331 331 329 326 325 324 323 322 320 317 316 315 316 316 318 321 321 321 320 319 317 317 317 316 315 313 311 308 306 304 304 304 304 304 304 304 304 304 304 305 305 306 307 307 307 307 307 307 307
329 328 328 328 329 329 330 330 329 330 329 329 332 334 333 332 331 331 331 331 330 330 329 330 330 330 329 329 330 330 329 329 328 329 330 329 330 331 329 328 328 327 326 325 324 323 322 322 321 322 324 325 326 325 325 325 324 323 322 320 319 317 314 311 308 306 306 305 304 304 304 304 303 303 303 304 304 305 306 307 307 307 308 308 308
329 328 327 329 329 330 330 330 330 330 328 328 331 333 334 332 332 332 331 331 331 330 330 329 329 329 328 327 329 330 329 328 327 329 329 329 329 329 328 328 328 327 327 326 325 325 326 326 326 327 328 328 328 327 327 328 328 327 327 325 323 320 317 314 311 311 310 309 308 306 304 303 303 303 303 303 303 304 305 306 307 307 308 308 308
329 329 328 330 331 331 331 329 328 329 329 330 330 332 333 333 333 332 332 332 330 330 329 329 330 329 328 328 330 330 330 329 329 330 329 329 329 329 328 328 328 327 327 327 325 325 326 327 327 327 327 327 328 327 327 328 328 329 329 329 327 325 323 320 316 315 315 313 312 309 306 304 303 303 303 303 303 303 304 306 306 307 308 308 308
330 330 330 330 330 332 332 330 327 327 329 329 329 332 333 331 331 332 333 332 330 330 330 329 330 330 330 330 331 330 330 331 330 329 329 329 330 329 329 329 329 327 326 326 326 326 327 326 326 326 326 327 327 327 327 327 328 329 329 329 329 329 329 326 322 320 318 317 316 313 311 308 306 304 303 303 303 304 304 306 307 308 308 308 308
330 329 330 331 331 332 332 331 328 325 326 327 328 331 331 329 328 330 332 332 331 331 330 330 330 329 330 330 331 331 331 330 329 329 330 330 329 329 329 329 329 328 327 326 327 327 326 324 324 325 324 325 325 326 326 327 327 327 328 328 328 328 329 328 327 325 322 320 319 318 317 315 313 311 309 308 307 308 309 309 309 308 308 308 308
328 329 329 330 331 332 333 331 329 324 323 326 326 328 329 327 327 328 330 331 331 331 330 329 329 329 330 329 329 330 330 330 329 329 329 328 326 326 328 328 329 329 328 328 328 327 325 323 323 324 323 323 324 324 325 326 326 326 327 327 327 327 327 327 328 328 326 324 323 323 322 321 319 317 315 314 314 313 313 312 311 309 308 308 308
327 328 328 329 331 332 331 329 327 323 323 325 324 325 326 325 327 328 329 331 330 329 328 329 329 329 329 328 328 329 328 329 329 329 328 327 326 326 327 328 329 329 328 329 328 328 325 322 323 323 324 324 324 324 324 325 325 326 326 326 326 327 327 326 327 327 327 327 326 325 325 325 325 323 320 317 316 315 314 313 311 310 309 308 308
326 327 328 330 332 332 330 329 327 322 323 326 323 323 324 324 326 326 328 331 330 328 328 328 329 329 328 327 328 328 328 328 329 329 328 327 326 326 325 326 326 325 325 326 327 327 326 324 323 323 325 326 325 325 324 324 325 325 326 326 326 326 326 326 326 327 327 326 326 326 326 326 327 327 324 321 318 316 315 314 312 312 311 310 309
328 327 328 330 331 331 332 332 330 325 324 326 324 324 324 324 326 326 328 331 331 331 329 329 329 328 328 327 327 327 327 329 329 328 327 326 325 324 322 321 321 320 319 321 323 325 326 326 325 324 325 325 325 325 324 324 324 324 325 326 326 326 326 326 327 328 328 327 326 325 326 326 326 326 326 325 323 318 316 316 315 314 313 311 310
328 327 328 330 330 330 331 332 332 328 324 324 324 324 324 325 327 329 331 331 331 331 330 330 329 328 328 328 327 326 326 327 327 326 326 325 325 324 323 322 321 319 318 318 318 319 322 325 325 325 326 325 323 324 323 323 323 322 323 324 325 326 326 326 327 327 328 327 326 325 325 325 325 326 326 327 327 322 318 318 317 316 314 313 311
328 328 329 329 328 328 329 329 330 328 324 323 323 324 325 325 326 329 331 330 330 331 330 329 329 328 327 327 327 326 327 327 326 325 324 323 324 324 323 323 323 322 322 321 320 320 322 323 323 324 326 325 322 322 323 323 322 321 320 320 322 323 325 326 326 326 326 326 327 326 326 325 325 325 326 326 327 326 322 320 319 318 317 315 314
330 330 330 329 327 327 328 328 329 328 327 325 323 323 323 323 324 326 328 329 330 331 330 328 328 328 326 326 327 327 327 327 326 325 324 323 323 323 323 322 323 322 323 324 323 323 323 323 322 322 323 325 323 321 322 322 321 320 320 320 320 321 323 324 324 325 325 326 326 326 326 326 326 325 325 325 326 326 325 323 321 320 320 319 318
328 328 328 328 328 326 327 328 328 327 329 328 326 324 323 324 324 324 327 329 329 329 330 328 326 328 326 324 324 325 326 325 326 326 324 323 322 322 322 321 322 322 322 323 322 322 323 322 322 322 321 323 322 320 320 320 320 319 319 319 319 320 321 322 323 323 324 324 325 325 326 326 326 326 326 326 325 325 326 325 324 322 321 322 322
324 324 324 323 324 323 323 325 326 326 326 327 327 325 326 327 327 327 328 328 326 328 330 329 327 329 328 325 323 324 326 326 326 325 324 323 321 320 320 320 320 321 321 321 320 319 320 321 321 321 322 322 322 321 320 320 320 320 319 317 318 320 320 321 322 322 323 323 323 323 324 324 325 326 326 327 327 326 326 326 326 324 323 323 323
324 324 324 322 321 321 321 323 324 324 324 325 326 325 325 325 326 328 327 327 326 325 328 330 329 329 328 327 326 324 324 325 325 325 323 322 320 320 318 317 318 320 320 320 320 319 319 319 320 320 321 321 321 321 322 322 321 320 319 318 318 320 322 322 323 323 324 324 323 324 323 323 324 325 326 326 327 327 327 327 327 327 326 324 323
324 324 324 323 322 322 322 323 324 324 324 324 324 324 325 324 324 327 327 327 327 324 325 328 328 329 328 328 328 325 324 323 323 323 323 321 320 319 318 316 317 318 318 319 319 318 318 319 319 319 319 319 319 320 320 321 321 321 321 320 321 321 322 323 323 323 323 323 323 324 324 323 323 324 324 325 325 326 326 327 327 327 327 326 325
324 325 325 324 324 324 324 324 324 323 324 324 323 323 323 322 323 326 326 326 326 323 325 328 327 327 328 327 327 326 325 324 322 322 322 320 319 319 319 318 317 317 317 317 317 317 317 317 317 317 318 317 317 317 317 317 318 319 320 321 321 321 321 321 322 322 322 322 324 325 324 322 321 321 321 322 322 323 324 326 326 326 326 327 327
324 324 324 322 322 323 324 324 322 322 324 324 324 323 321 320 320 322 322 323 324 323 324 326 325 325 326 326 325 325 324 323 322 321 320 319 319 318 318 318 317 316 315 315 314 314 314 314 315 316 316 316 315 315 314 313 313 314 315 315 316 317 318 320 321 321 322 323 324 324 323 322 321 321 320 320 320 320 321 323 324 325 327 327 327
323 323 323 322 322 322 323 323 323 322 324 323 324 324 323 321 319 320 321 321 322 323 323 324 326 325 325 324 323 323 322 320 320 319 318 318 318 318 317 316 316 315 314 314 313 312 312 313 313 314 314 314 314 312 310 310 309 309 309 309 309 310 311 314 317 319 320 322 322 322 322 322 322 322 322 321 321 320 319 320 321 323 326 327 327
323 322 322 322 323 323 322 323 322 321 322 323 323 324 324 323 321 321 322 323 323 325 325 325 325 324 322 320 319 319 318 317 318 317 317 318 318 316 315 315 315 314 313 313 311 310 310 310 311 312 313 313 312 309 307 307 306 306 306 306 306 306 306 307 308 310 313 314 316 318 320 321 321 322 322 321 321 321 320 319 319 320 321 322 323
322 321 322 323 323 322 321 321 321 320 320 320 321 322 323 323 323 322 323 324 324 324 324 323 322 320 318 316 315 314 314 313 315 315 315 317 317 316 315 314 314 314 313 312 311 309 308 308 309 310 311 311 310 308 306 306 306 306 306 306 305 305 305 305 305 305 305 306 307 309 311 314 316 317 319 320 321 322 320 319 318 318 318 319 319
321 321 321 321 318 317 317 318 319 320 320 319 320 321 322 322 322 321 321 320 320 320 320 318 317 315 314 313 313 312 312 311 312 312 314 315 316 316 315 314 314 314 314 312 311 309 308 308 308 309 310 309 308 307 306 307 306 306 307 307 306 306 305 305 305 305 305 304 304 304 305 306 307 309 311 314 316 318 320 320 319 318 317 317 317
319 318 318 316 314 313 314 314 316 318 318 319 319 319 320 320 320 318 316 315 315 315 313 311 309 309 310 312 313 312 312 313 313 313 314 315 315 315 315 314 314 314 313 313 312 310 309 309 308 308 309 309 308 307 308 309 306 306 307 305 305 306 305 305 305 305 305 305 305 304 304 304 304 304 305 306 308 310 313 315 317 318 318 317 318
314 314 316 316 315 314 312 310 311 313 314 316 315 315 316 317 315 314 313 312 311 310 309 307 305 306 309 313 314 313 314 314 314 314 314 315 315 315 316 314 314 314 313 313 313 311 310 309 308 308 307 308 308 307 308 308 305 307 309 305 303 305 304 304 304 304 304 304 304 304 304 304 304 304 304 304 305 305 306 307 309 311 313 314 315
308 309 311 312 311 310 308 307 307 308 310 311 311 312 313 312 311 309 307 307 307 306 306 306 307 310 313 315 316 315 315 314 313 314 314 315 315 316 316 315 315 315 315 315 314 312 312 310 309 308 307 307 307 306 306 305 304 306 308 305 303 304 303 303 303 303 303 303 303 304 304 304 303 303 304 304 304 304 304 305 305 305 306 307 308
305 306 309 310 310 308 307 306 306 305 307 308 309 310 310 307 306 306 305 305 306 307 307 308 310 312 314 316 316 314 313 314 314 315 315 315 315 316 316 316 317 316 316 316 316 314 313 311 309 308 308 307 307 307 306 306 305 305 305 305 304 304 304 304 303 303 303 303 303 303 303 303 303 303 303 303 303 303 303 303 303 304 304 304 305
306 308 311 312 311 310 309 307 306 305 306 306 307 307 306 306 308 306 305 307 308 310 311 312 312 313 314 315 315 314 314 315 316 316 317 316 316 316 316 316 317 317 317 316 316 314 313 312 310 308 309 308 307 307 306 306 307 306 305 306 305 305 306 306 305 305 304 304 304 304 304 304 304 304 304 304 304 304 304 303 303 303 303 303 303
307 311 314 313 312 312 311 309 308 307 306 306 306 308 308 309 310 309 309 311 312 312 312 313 314 314 315 314 313 313 314 316 315 316 316 316 316 316 316 316 316 316 316 316 316 315 313 312 310 308 309 309 307 307 307 308 308 307 306 306 306 305 306 306 306 306 306 305 306 306 306 306 306 306 306 306 306 305 305 305 304 304 304 304 304
310 312 314 314 314 313 313 312 310 309 309 309 310 311 311 309 308 310 313 313 312 312 313 313 314 314 314 314 312 311 313 314 314 314 314 315 315 315 315 316 316 316 316 316 315 315 313 312 310 309 309 309 307 307 308 309 309 308 306 305 306 305 305 306 306 305 306 307 307 307 307 307 307 306 306 306 306 306 306 306 306 306 305 305 305
314 315 314 314 315 315 315 314 313 312 312 312 314 313 310 308 308 311 314 314 313 312 312 312 313 312 313 314 312 310 310 311 313 314 314 314 314 315 315 315 315 315 315 315 315 315 314 312 311 309 309 309 309 308 307 308 308 308 307 307 306 306 307 307 307 306 306 307 308 308 307 307 307 307 306 306 306 306 306 306 306 306 306 306 306
313 315 314 314 315 316 316 316 315 314 314 313 314 316 314 313 313 312 313 314 313 313 313 313 312 312 313 314 313 311 310 311 313 314 313 313 314 314 315 314 314 314 314 315 314 314 314 313 312 311 310 311 310 309 308 309 308 308 308 308 308 308 308 308 309 308 308 308 308 308 307 307 307 307 306 306 306 306 306 306 306 305 305 305 305
312 313 314 314 314 314 313 315 315 314 312 310 312 315 314 315 315 314 314 315 315 316 316 315 315 315 315 316 316 315 314 314 315 315 314 314 314 315 315 314 314 314 315 315 315 314 314 314 313 312 312 312 311 310 310 310 310 310 310 310 310 309 309 309 310 310 309 308 308 308 307 306 304 304 304 304 304 304 305 305 305 305 305 305 305
315 313 314 314 314 312 311 312 312 312 312 310 311 312 311 311 314 315 316 317 317 317 318 318 317 317 317 317 317 317 317 317 317 316 316 315 315 315 315 315 314 313 314 316 316 315 315 314 314 313 313 313 312 312 311 310 310 311 311 310 311 311 311 310 310 310 309 309 308 308 306 304 303 302 302 302 303 303 303 304 304 304 305 304 304
318 317 316 315 315 314 313 313 313 313 314 314 313 314 314 315 317 318 319 319 319 319 319 319 318 318 318 318 318 318 318 318 317 317 317 316 316 316 315 315 314 313 314 315 316 315 315 315 314 314 314 313 313 313 312 310 310 311 311 311 311 311 311 310 310 309 309 309 308 307 306 305 303 303 303 303 303 303 303 303 303 304 304 304 304
320 319 319 317 316 316 315 314 314 314 315 316 316 316 317 319 320 321 320 319 320 320 319 319 319 319 319 318 318 318 318 318 317 317 316 316 316 316 315 315 315 314 314 314 315 315 315 315 315 314 314 313 313 312 312 312 311 312 311 311 311 311 310 310 309 309 308 308 308 307 306 305 304 303 303 303 303 304 303 303 303 303 303 303 303
320 320 320 320 318 317 316 316 316 316 317 318 318 317 319 321 321 322 321 320 321 322 320 320 320 319 318 318 318 318 318 317 316 316 316 316 316 316 315 315 315 315 314 314 314 315 314 314 314 313 313 313 313 313 313 312 312 312 311 311 310 310 310 309 309 308 307 307 307 307 306 305 304 303 303 304 304 304 303 302 302 302 302 302 301
321 320 321 321 320 319 318 318 318 318 319 318 317 316 318 320 320 320 320 320 321 321 320 320 320 318 317 317 317 318 318 318 316 315 315 315 315 316 315 315 315 315 314 314 314 314 314 314 313 312 312 312 312 312 312 312 311 311 310 310 310 309 309 308 308 308 307 307 307 307 305 304 303 303 303 304 304 303 303 303 302 301 301 300 299
321 321 321 321 321 320 319 320 320 320 319 316 314 313 315 317 318 317 318 318 318 318 318 318 318 316 316 316 316 317 317 317 316 315 315 315 315 315 315 315 315 315 314 314 314 314 314 314 313 312 312 312 312 312 311 311 310 310 310 309 308 309 309 308 308 307 307 306 306 306 304 302 303 303 303 303 303 303 303 303 302 300 300 299 298
319 320 321 320 321 320 320 321 321 320 318 316 315 314 313 314 315 316 317 316 316 315 315 316 315 314 314 315 316 316 316 316 315 314 313 314 314 315 316 316 316 316 315 315 314 313 313 313 313 313 312 312 311 311 310 310 310 309 308 307 307 308 308 307 307 307 306 305 305 304 303 301 302 302 302 302 303 303 303 302 301 300 299 298 298
321 321 320 319 319 319 320 321 322 321 320 318 317 316 314 314 314 315 316 316 315 314 314 315 314 312 311 310 312 313 313 311 310 310 310 309 309 310 313 314 316 316 317 317 316 313 312 312 312 312 312 311 311 310 310 309 308 307 306 306 307 306 306 306 306 305 304 303 303 303 303 302 302 302 303 302 302 302 302 302 301 300 299 298 298
323 323 322 321 320 319 320 320 321 322 321 319 318 317 316 315 314 314 315 315 315 314 314 315 313 312 310 306 308 313 312 305 302 305 308 307 303 304 306 308 310 313 315 317 317 315 312 310 308 309 310 310 310 309 308 307 307 306 305 305 305 305 305 305 304 303 303 303 303 303 303 303 303 303 303 302 301 301 301 301 301 300 299 299 298
323 323 323 322 322 320 319 319 319 320 320 319 318 317 316 315 315 315 315 315 315 315 316 315 313 311 307 303 305 310 309 303 300 303 305 305 302 302 304 305 306 308 310 313 315 315 313 310 307 306 307 307 306 306 306 306 306 305 305 305 304 304 304 303 303 303 303 303 303 303 303 303 303 303 302 302 302 301 301 301 300 300 299 299 299
322 322 322 322 321 320 320 319 319 319 319 319 318 317 315 316 316 315 315 315 315 315 316 315 312 309 306 305 308 308 303 302 302 302 302 303 302 302 303 304 305 306 309 312 313 312 311 309 307 306 305 305 305 306 306 305 305 304 304 304 303 303 302 302 303 303 302 302 302 301 302 301 301 301 301 302 302 301 301 301 300 300 300 300 300
322 322 322 321 320 320 320 320 319 319 319 318 318 317 316 315 314 314 314 314 314 315 315 313 311 308 304 306 308 306 302 302 302 302 302 302 304 305 305 306 307 309 311 311 310 309 308 306 306 305 305 305 305 305 305 305 304 304 303 303 303 302 301 300 301 301 301 301 301 300 301 301 301 301 301 301 301 301 300 300 300 300 301 301 300
321 321 321 321 319 319 320 320 319 319 318 317 317 317 317 315 313 313 313 314 314 314 313 312 309 305 302 303 303 302 302 302 302 302 302 302 306 308 307 307 308 309 308 308 307 307 306 305 305 305 305 306 305 305 305 304 303 303 301 301 301 299 299 299 300 300 300 300 300 300 301 301 301 301 301 300 300 300 300 300 300 301 301 300 300
320 320 321 320 319 319 320 320 319 319 318 317 316 316 317 315 312 313 314 314 314 313 312 310 306 302 302 303 302 302 302 302 302 302 301 302 308 311 309 308 309 308 307 306 306 306 305 305 306 305 305 305 304 303 303 302 301 301 300 299 299 298 299 300 300 300 300 300 300 300 300 300 300 299 299 299 299 299 299 300 300 300 300 300 300
Wind_Speed
9 8 7 6 7 8 10 11 10 9 8 6 5 6 5 6 7 7 6 6 6 6 7 8 7 7 6 6 8 9 8 6 4 5 4 3 4 4 4 3 2 2 2 1 2 3 2 2 2 3 3 3 3 2 2 1 1 2 3 3 3 3 3 3 3 3 3 3 4 4 4 5 5 6 7 8 8 9 9 9 9 9 9 10 10
7 8 7 6 7 6 8 10 10 9 9 8 7 7 7 7 8 7 6 6 6 7 8 8 7 7 7 7 8 9 9 7 5 6 5 4 3 3 2 2 2 2 1 1 2 3 3 2 3 4 5 5 5 4 4 2 1 1 3 3 3 4 4 4 3 3 3 3 2 3 3 3 4 4 5 6 7 8 8 9 9 9 9 9 9
8 9 9 8 7 5 5 9 11 11 11 10 8 8 7 7 8 7 7 7 6 7 8 8 8 8 8 7 6 6 6 7 6 6 5 3 2 2 1 2 3 2 3 2 3 4 5 5 6 7 7 8 7 6 6 5 4 3 1 2 3 3 4 4 4 4 3 3 3 2 2 3 3 3 4 4 5 6 7 8 8 8 8 9 9
10 9 8 8 7 5 5 7 10 12 12 11 9 9 9 8 9 9 9 8 7 8 8 9 8 7 7 5 5 5 6 7 7 6 5 3 2 2 1 2 3 2 3 3 3 4 5 6 6 7 8 8 7 7 7 6 6 6 5 4 3 2 2 3 3 4 4 4 3 3 3 3 3 3 3 3 4 5 5 6 7 7 8 8 8
11 10 9 9 7 6 7 7 9 11 11 12 11 10 9 10 10 9 9 8 8 9 9 9 7 7 8 7 7 6 7 8 6 5 5 4 4 4 2 1 0 1 2 2 3 3 4 5 5 5 5 5 5 6 7 7 7 8 8 7 6 5 3 3 3 4 5 4 4 4 4 4 4 4 4 4 4 4 4 5 5 6 7 7 8
11 12 11 11 9 8 8 7 9 9 9 11 13 11 10 10 10 9 8 8 9 9 10 10 9 10 9 8 9 6 5 7 5 3 3 3 4 5 3 4 3 2 1 2 3 3 4 4 4 3 4 4 3 4 5 5 6 7 7 7 8 7 5 4 5 5 6 5 5 4 4 4 4 4 4 4 5 5 5 5 5 5 6 6 7
12 13 14 12 8 7 8 7 8 8 8 10 12 12 11 10 9 8 9 8 8 9 10 10 9 9 8 7 8 3 1 4 4 3 2 2 2 4 5 4 4 4 3 2 2 3 3 3 3 3 4 4 3 3 4 5 5 5 5 5 6 7 8 7 6 6 6 6 5 4 3 3 4 5 4 4 5 5 5 5 5 5 5 5 6
12 13 14 12 8 6 7 8 9 8 9 9 9 10 11 11 10 9 9 9 8 7 7 8 6 7 8 7 7 4 3 5 4 3 2 2 2 2 3 4 5 5 5 5 5 3 2 2 3 4 4 4 3 3 3 5 5 6 6 4 2 3 4 5 6 6 5 5 6 5 3 2 3 4 5 5 5 5 5 5 5 5 5 5 5
11 11 12 11 8 7 8 9 10 10 10 10 9 9 9 11 11 10 10 9 8 7 6 7 6 6 7 6 5 4 5 5 4 3 2 2 2 1 2 3 4 5 7 8 7 6 4 2 3 2 2 2 2 2 2 3 3 4 4 3 3 3 3 2 2 3 4 5 5 5 4 4 3 3 4 4 5 5 5 5 5 5 5 5 5
10 10 10 9 8 8 8 8 9 9 10 9 10 11 9 9 10 11 11 9 8 9 8 8 6 5 5 5 4 2 2 2 2 2 2 1 2 2 2 3 3 3 6 8 8 9 6 4 4 3 3 2 2 2 3 3 3 3 4 4 4 5 5 5 4 2 2 3 5 5 6 6 5 5 5 5 5 5 5 5 5 6 6 5 5
9 9 10 8 8 8 8 8 7 7 8 8 10 11 9 8 8 9 10 9 9 10 10 9 8 7 6 5 5 4 1 1 2 1 2 2 2 1 1 2 2 4 5 6 8 8 5 6 8 7 5 5 5 6 6 6 7 6 6 5 5 5 6 7 7 6 5 4 4 5 6 7 7 8 8 7 7 7 7 7 6 6 6 6 6
8 9 9 7 8 9 9 8 6 7 8 9 10 10 8 8 8 8 8 8 8 10 12 10 9 9 8 7 8 7 4 2 2 2 1 2 2 2 1 1 1 4 5 4 5 5 2 4 8 7 4 5 6 7 8 9 9 9 8 8 7 7 8 8 8 7 7 7 6 6 6 6 7 8 9 9 9 9 9 8 8 8 7 7 7
7 8 8 8 9 9 7 5 6 7 7 9 10 10 9 10 8 7 7 7 6 8 11 9 9 9 8 8 8 8 5 2 1 1 1 1 1 2 4 4 3 3 4 3 2 4 2 2 4 5 4 4 3 5 8 9 8 8 8 9 9 8 9 10 9 8 8 8 7 7 7 7 7 8 7 8 9 9 9 9 9 8 8 7 7
5 5 6 7 7 6 4 4 6 7 7 9 11 12 11 10 9 7 6 7 7 7 9 9 8 9 8 8 8 7 5 4 2 2 2 1 1 0 2 3 3 2 3 3 2 2 2 2 2 2 4 3 1 2 5 6 6 7 7 8 8 8 9 9 9 9 8 7 8 8 7 7 7 8 7 6 8 9 9 8 8 8 8 8 7
3 2 3 5 5 6 5 6 6 6 8 10 11 12 12 10 10 8 6 7 7 7 8 8 7 7 9 7 7 7 6 5 4 3 3 3 3 2 1 1 1 2 2 2 3 3 2 3 3 1 1 2 4 0 3 4 4 5 5 6 7 7 8 8 8 8 8 8 8 8 8 7 8 8 7 6 6 7 7 7 7 7 7 7 7
1 0 3 6 6 6 5 5 5 5 6 7 8 10 10 10 10 9 8 7 7 7 7 8 6 6 8 7 6 7 6 6 5 4 3 3 3 2 3 3 2 2 3 3 4 3 2 3 4 4 4 8 8 2 3 4 4 5 6 6 6 6 7 8 8 8 8 8 8 8 8 7 7 8 8 8 6 5 5 6 6 6 6 6 6
4 3 3 5 4 3 3 2 3 4 5 5 4 6 7 8 9 9 9 8 7 6 6 9 9 7 6 6 6 6 7 8 8 5 4 4 3 2 2 3 3 3 3 4 5 6 6 6 6 6 5 7 9 5 3 4 5 6 6 6 6 6 6 7 7 7 8 8 7 8 8 8 9 9 9 9 8 7 7 6 6 6 6 6 6
5 4 4 3 3 3 3 2 2 4 6 5 4 5 6 6 7 7 9 9 8 7 5 7 10 9 8 8 6 4 8 12 10 7 6 5 3 3 4 4 4 4 4 4 4 4 6 7 7 7 6 7 8 6 4 5 5 5 5 5 6 6 6 5 5 6 6 6 7 7 7 8 9 10 10 11 11 11 11 10 9 8 8 8 8
2 2 2 1 2 2 2 2 2 2 3 5 5 6 5 6 6 6 7 8 9 7 5 5 7 8 7 8 8 5 10 13 9 8 9 6 5 5 5 5 6 6 6 5 3 3 6 8 8 8 8 8 8 7 6 5 5 5 4 5 6 6 5 4 3 3 4 5 6 7 7 8 9 10 11 12 13 14 14 13 12 11 10 10 10
2 3 2 2 2 2 2 2 2 1 2 4 6 6 6 7 7 7 7 6 7 7 6 5 5 6 6 6 7 7 11 12 9 8 9 8 6 5 5 5 6 7 7 7 6 6 8 9 8 8 9 9 8 8 8 7 6 6 5 5 6 7 6 3 2 2 2 3 4 5 6 7 8 10 11 11 13 14 15 15 15 14 13 12 13
3 3 3 2 2 2 3 4 5 3 3 4 5 7 8 7 7 8 8 7 7 8 7 6 5 5 5 6 6 6 10 11 8 7 6 7 7 6 6 6 7 8 7 7 7 8 9 9 9 8 9 9 7 7 8 7 7 7 7 7 7 8 8 6 5 4 4 4 4 4 4 4 5 7 8 9 11 12 13 14 14 15 16 16 15
4 4 4 3 2 3 3 4 6 6 5 5 5 6 7 6 7 8 8 8 8 8 8 7 6 6 6 6 6 5 7 9 7 6 5 5 6 7 7 7 8 8 8 8 8 8 8 9 8 8 8 8 5 5 7 7 7 7 7 8 9 9 8 7 6 5 4 4 4 4 4 5 6 6 7 8 9 10 11 11 11 13 15 17 16
5 4 4 4 4 5 5 5 4 5 6 5 5 5 6 5 6 7 7 8 7 7 9 9 7 6 5 5 4 4 4 4 4 5 5 4 5 7 7 7 8 8 8 7 7 7 8 8 8 8 8 7 4 4 6 5 5 6 6 7 7 7 7 7 6 5 4 4 4 4 4 5 5 6 6 7 8 10 10 7 7 10 13 15 16
5 4 5 5 5 6 7 5 4 6 6 6 6 6 6 5 5 5 5 5 5 6 9 9 7 6 6 5 4 4 3 3 3 3 3 5 6 6 7 7 8 8 7 7 7 7 7 8 8 8 7 7 5 6 6 5 5 5 6 6 7 7 7 6 5 5 5 5 5 5 5 5 5 5 6 7 7 9 10 8 4 7 10 12 13
4 4 5 6 5 6 6 5 5 6 7 7 7 7 7 6 6 5 5 5 6 7 7 9 9 7 6 5 5 4 4 3 3 3 3 6 6 6 7 7 6 7 6 6 7 7 7 7 7 7 7 6 5 7 8 7 6 7 7 7 7 8 7 7 6 5 5 5 5 5 6 6 6 6 7 7 7 8 9 9 7 6 7 8 9
5 5 6 6 6 7 7 8 7 6 7 8 8 9 8 7 7 8 7 7 8 9 8 8 9 8 6 5 5 5 4 4 4 3 4 6 5 5 7 6 4 5 6 6 5 5 7 6 6 5 4 4 4 7 8 7 7 8 8 8 8 9 9 9 8 7 7 6 6 6 6 7 7 8 8 8 8 8 8 7 7 7 8 8 9
6 6 7 7 7 7 8 10 10 8 8 8 8 10 10 8 9 10 10 9 9 9 9 8 8 8 7 6 6 5 5 4 4 4 4 5 4 5 6 5 5 4 5 6 5 5 5 5 5 5 4 4 4 5 7 8 9 8 7 9 9 10 10 10 10 9 9 9 9 9 8 8 8 8 9 9 9 9 9 9 8 8 9 10 10
7 8 8 7 7 7 8 11 11 9 9 9 8 9 10 8 9 10 10 9 9 9 8 8 8 8 9 8 7 6 7 6 5 4 4 4 5 6 5 5 6 5 5 4 4 4 4 3 4 4 3 4 4 6 7 7 9 9 8 10 10 9 10 10 10 10 10 11 11 11 11 10 10 10 10 10 10 10 10 11 11 11 11 11 12
9 9 9 8 8 9 9 11 12 11 10 9 8 9 10 8 9 11 11 10 10 9 9 9 9 9 10 9 8 7 7 6 6 7 6 6 7 6 4 4 4 5 6 5 4 3 3 3 4 3 3 3 4 5 4 3 7 8 7 9 9 8 9 9 9 10 10 10 11 11 11 11 11 12 11 11 11 11 11 11 11 12 12 13 14
13 12 10 9 9 9 10 10 11 12 11 10 9 9 9 9 10 10 11 11 11 11 11 11 11 11 10 9 8 8 8 7 8 8 7 7 6 4 3 3 1 1 5 6 6 4 2 3 3 3 2 3 4 4 2 3 6 5 4 8 9 9 9 8 9 10 10 10 10 10 11 11 11 12 12 12 12 13 13 13 13 13 13 14 14
15 14 11 9 9 9 9 10 10 11 11 11 10 10 9 10 10 10 11 12 12 13 13 12 12 12 12 10 8 9 10 9 9 9 7 7 5 3 3 2 2 4 4 4 4 4 3 2 1 1 1 1 1 3 4 5 6 4 5 8 9 9 9 8 8 10 10 10 10 11 11 11 12 12 12 12 12 12 13 13 14 14 14 15 15
14 13 10 9 9 8 8 9 10 10 11 11 11 11 11 10 9 10 12 12 12 13 12 11 11 11 11 10 9 10 10 8 7 8 6 5 5 4 4 4 3 5 4 2 3 4 3 1 1 1 1 1 2 3 4 5 6 6 5 7 9 11 12 11 12 11 11 12 11 12 12 12 12 12 13 13 13 13 13 13 14 14 15 15 16
13 12 10 9 9 9 8 9 9 10 12 13 12 12 12 12 11 12 12 11 10 11 12 11 10 10 8 7 9 10 8 6 5 5 4 4 5 4 3 3 2 3 2 2 3 3 1 0 1 1 3 2 1 1 2 4 6 6 4 7 10 11 10 12 16 15 14 14 14 14 15 15 15 14 15 15 15 15 15 15 15 15 15 15 16
11 10 10 10 9 9 9 9 9 10 11 13 12 11 12 14 15 14 11 9 10 11 11 10 8 9 8 6 7 8 7 7 6 3 3 4 2 2 2 1 1 2 1 1 2 1 1 1 1 2 2 3 0 4 5 5 6 4 4 7 8 6 6 9 13 18 18 17 18 18 18 19 19 18 18 18 18 18 18 18 18 17 17 17 17
11 10 11 11 11 10 10 10 10 10 11 12 12 11 12 14 15 14 12 9 10 10 9 8 7 8 8 6 6 7 8 8 7 3 4 5 3 2 4 2 1 1 1 1 1 1 1 1 1 3 3 4 2 3 5 7 9 8 4 6 6 6 7 7 10 16 20 20 20 20 20 21 21 21 21 21 21 21 21 21 20 20 20 20 20
11 11 11 11 12 12 12 12 12 12 12 13 13 12 12 12 11 12 12 10 10 9 8 7 6 6 7 6 5 6 7 7 6 3 4 6 3 2 4 3 2 2 1 1 1 0 1 1 2 2 3 5 4 3 4 8 11 11 7 7 7 7 9 11 11 14 19 24 26 23 21 22 23 22 22 23 24 24 24 24 23 23 23 22 22
11 11 11 11 12 13 13 12 13 13 13 15 14 13 14 14 12 12 11 10 10 9 8 8 7 6 6 6 5 5 6 6 5 4 4 6 4 3 4 4 4 4 2 1 2 2 3 3 4 4 4 5 5 5 7 8 10 11 9 9 9 10 13 16 15 14 18 26 31 30 27 26 26 26 25 24 24 24 25 25 25 25 25 24 25
12 12 12 11 11 12 12 12 12 12 13 14 14 13 15 15 14 12 10 9 9 9 8 8 7 7 7 6 6 6 6 6 6 5 5 6 5 4 5 6 5 4 4 3 3 4 4 5 5 5 6 6 6 6 7 9 10 10 10 10 10 12 15 16 16 15 17 22 28 31 29 26 27 29 31 30 27 26 26 25 24 25 26 26 26
12 12 12 12 12 12 12 13 13 13 13 13 13 13 13 13 12 11 10 10 9 8 8 7 7 7 7 8 8 8 9 8 8 7 7 7 7 6 7 7 5 3 4 5 5 5 5 5 6 6 6 7 8 7 7 8 9 10 11 11 12 14 16 15 16 17 16 17 22 24 22 22 25 29 31 32 31 29 29 28 26 26 26 25 25
13 13 13 13 14 13 14 14 14 15 15 15 15 15 14 14 13 11 11 11 9 8 9 8 8 9 9 9 10 9 10 10 10 10 9 10 10 9 8 8 7 6 6 6 6 7 8 7 7 8 8 9 9 9 9 9 10 11 11 12 14 17 17 16 17 17 17 16 17 18 18 19 23 27 29 30 29 27 29 30 30 29 27 25 25
15 14 14 14 14 14 15 15 16 16 17 17 17 17 17 16 14 14 13 12 10 9 8 8 11 12 11 11 11 10 12 15 15 14 13 13 13 11 9 9 9 9 9 8 8 8 9 9 10 10 10 11 10 10 10 9 11 13 13 13 16 17 18 19 19 16 15 16 16 18 19 20 24 28 28 24 21 23 27 30 31 32 29 27 27
16 16 15 15 15 16 16 16 17 18 19 20 19 19 19 19 18 19 19 17 14 13 11 10 12 13 11 12 13 13 14 16 17 17 15 15 16 15 13 13 12 12 11 11 10 11 11 12 12 12 11 12 12 11 11 11 13 13 13 13 15 18 19 20 20 17 16 16 17 19 24 28 30 29 24 19 18 22 24 24 27 31 32 30 29
16 16 16 16 17 18 18 18 19 22 23 23 21 20 22 22 22 21 22 21 18 15 13 11 11 11 11 10 10 11 12 14 15 16 16 15 16 17 17 17 17 17 16 14 12 11 12 14 13 12 12 13 12 11 12 13 12 12 13 14 16 18 19 20 22 22 20 18 19 25 31 34 31 25 21 20 19 20 21 22 26 31 32 31 30
17 18 19 19 19 20 20 20 22 25 27 26 23 22 23 24 23 22 23 23 21 18 18 15 12 12 12 10 8 8 10 13 13 13 14 14 16 17 17 17 18 20 21 20 16 14 13 12 11 11 12 13 12 11 12 13 13 16 19 19 17 17 18 20 21 23 24 25 28 32 35 33 29 25 22 21 19 19 21 24 28 32 33 33 33
18 19 21 22 22 23 23 23 22 24 27 28 25 24 24 24 24 24 24 24 23 23 23 20 18 17 15 14 11 10 13 16 15 12 11 12 13 15 16 17 18 19 20 20 20 19 18 14 9 7 9 10 9 10 15 16 17 20 22 20 18 19 22 23 25 30 33 32 30 29 29 29 27 23 21 21 21 21 21 23 28 32 34 35 35
18 19 20 21 23 25 26 26 25 24 26 28 27 25 24 24 24 25 26 24 23 23 23 24 25 23 18 17 14 12 14 15 12 9 9 11 11 10 12 15 16 17 17 18 19 20 21 20 16 11 11 13 12 13 18 20 21 22 23 22 24 26 29 32 34 35 32 25 21 22 24 24 22 20 21 22 23 22 22 23 27 31 33 35 35
18 21 22 22 23 26 29 31 30 28 27 27 27 26 26 25 25 26 27 25 23 20 20 23 25 22 19 17 14 14 14 12 9 8 9 10 10 9 11 13 14 15 17 17 18 19 20 21 19 17 18 18 17 18 21 21 22 23 25 26 28 30 31 31 29 26 21 18 17 20 23 22 20 22 23 22 22 23 23 23 26 29 32 33 32
17 20 23 23 24 25 27 29 29 29 28 27 27 29 28 27 27 27 25 25 24 21 19 20 18 16 15 13 11 13 14 11 9 9 9 10 10 10 12 13 14 14 15 14 15 15 17 18 18 18 19 20 20 21 22 22 22 24 25 27 29 28 25 23 22 20 19 19 17 19 23 24 22 23 24 22 22 24 25 25 27 28 28 28 29
16 18 21 22 22 22 24 25 26 29 31 29 29 30 29 28 29 27 24 24 23 21 18 16 15 16 15 12 11 13 13 10 9 9 8 9 9 10 12 13 13 13 12 11 11 12 13 15 16 18 19 20 21 22 23 23 24 25 27 28 28 26 22 21 22 21 20 19 18 19 22 23 21 22 24 23 23 24 26 26 24 23 24 26 28
16 18 20 22 21 20 21 23 26 28 29 27 27 27 26 28 29 26 24 23 21 20 18 17 17 17 15 14 14 14 11 10 9 7 7 7 7 8 10 10 9 10 10 10 10 11 13 15 17 19 20 21 22 23 24 25 25 26 26 25 25 24 22 20 20 20 20 19 17 17 18 18 19 20 22 24 24 23 22 21 20 19 22 25 26
16 17 19 21 21 20 21 23 25 26 25 25 25 24 23 25 28 27 25 23 22 21 20 19 18 17 15 15 15 12 10 9 7 6 6 6 7 7 7 6 5 7 9 10 10 11 13 15 18 20 22 24 25 25 26 25 23 22 22 21 21 20 18 17 17 19 19 17 15 17 19 19 20 21 21 24 26 24 20 19 19 18 20 22 24
Wind_Direction
208 212 220 203 194 204 196 191 193 182 178 168 150 155 162 164 156 161 164 157 166 160 164 173 163 160 162 165 170 174 172 176 171 143 163 225 241 270 318 358 12 339 307 281 224 192 186 202 145 94 95 95 86 100 125 148 315 304 299 317 328 336 350 2 9 3 3 11 20 24 28 30 28 30 31 34 38 41 43 43 43 42 40 38 36
216 209 228 226 202 202 187 185 192 187 180 167 165 165 161 163 152 153 156 151 161 158 163 165 159 162 163 171 177 181 173 160 165 162 163 199 231 254 305 355 27 25 26 67 162 154 152 153 119 100 99 91 79 77 87 83 44 320 293 298 303 319 331 339 349 346 345 340 346 354 5 16 17 22 23 23 29 32 36 38 39 38 37 35 35
227 212 219 236 218 208 184 183 195 196 180 162 165 160 153 158 150 154 154 150 156 154 160 157 156 163 159 170 180 177 163 153 163 161 158 189 234 246 309 31 38 38 53 87 120 120 119 119 111 104 97 86 75 69 69 70 72 70 35 341 320 327 331 330 331 326 325 319 315 316 324 345 353 4 14 16 18 22 27 30 32 32 32 32 30
229 223 220 237 224 213 204 190 199 202 178 155 162 158 151 159 156 158 150 144 148 146 156 154 151 159 159 168 170 173 171 163 161 155 161 170 184 215 200 57 40 42 61 84 108 112 117 119 115 106 95 86 78 73 70 69 71 73 70 59 36 19 2 341 332 329 323 313 310 307 309 318 325 331 342 357 4 8 16 22 24 23 25 27 24
229 228 227 237 229 217 211 196 199 204 177 157 164 157 155 163 156 152 142 138 140 137 147 149 150 160 166 173 164 170 176 164 155 146 159 165 177 203 216 196 184 59 82 98 116 127 133 134 134 123 103 88 78 77 78 76 79 78 76 74 68 61 42 1 342 343 338 326 319 314 315 312 310 316 321 333 340 345 355 5 15 14 16 18 18
239 233 231 234 229 219 210 199 198 203 189 173 167 155 159 161 150 148 140 135 133 132 144 155 170 170 171 174 161 168 177 159 156 145 150 161 176 186 185 199 218 222 184 132 126 134 138 143 148 140 113 95 76 68 68 65 75 82 83 81 72 62 49 26 10 3 355 347 338 326 320 309 301 302 308 317 319 323 334 345 355 360 4 7 9
241 231 228 223 224 222 210 206 203 209 206 186 166 154 159 156 152 154 143 137 137 142 155 164 172 164 165 166 148 163 184 139 149 152 164 160 162 191 188 198 224 230 222 205 181 148 133 127 113 100 86 79 63 34 30 30 37 47 54 65 67 56 47 39 30 22 10 1 359 350 332 303 287 287 291 298 304 311 320 328 336 338 345 352 356
239 230 226 213 210 217 217 218 206 210 211 188 164 155 159 159 160 156 147 146 146 149 160 164 162 147 158 164 145 154 140 127 142 141 159 153 157 232 211 200 217 220 225 232 225 204 167 127 96 87 78 68 65 47 21 16 16 12 17 21 16 26 37 44 42 38 27 14 10 7 358 327 289 285 287 287 293 302 309 317 323 322 322 331 340
235 231 224 202 198 206 220 224 199 202 215 188 164 165 174 171 165 161 156 153 153 154 151 158 164 151 157 161 146 155 148 141 150 136 135 141 146 243 257 231 226 222 232 241 243 242 230 170 117 97 97 75 47 42 12 354 355 345 346 346 321 309 311 335 23 41 38 29 18 13 13 360 337 316 301 294 297 301 306 312 313 309 306 311 321
229 234 226 196 201 212 216 219 189 198 222 194 171 181 190 180 171 172 163 157 164 162 161 167 163 154 162 159 140 138 144 144 130 117 137 163 153 164 241 249 244 248 244 244 246 247 248 231 221 253 280 290 304 324 326 311 303 301 300 313 324 317 311 310 308 317 359 21 19 18 21 12 358 346 331 319 313 311 309 305 300 295 293 296 301
222 230 228 198 204 219 211 203 182 200 219 200 194 198 198 189 181 181 169 171 184 177 180 176 154 159 176 166 150 143 166 160 126 139 177 186 157 133 287 279 249 258 258 254 251 243 232 231 238 250 271 287 288 292 304 304 294 285 281 292 302 302 308 312 312 312 309 314 336 353 4 7 6 360 350 338 326 319 311 301 293 288 286 286 287
221 230 232 208 206 216 210 200 199 226 215 193 204 205 201 204 193 187 178 183 196 186 185 174 159 174 178 166 160 155 171 187 145 158 166 152 122 104 101 96 211 245 253 253 270 282 260 223 241 248 253 272 285 289 292 292 289 284 280 283 288 291 297 301 306 313 311 304 302 308 318 332 346 354 355 350 339 327 316 308 303 299 296 291 288
217 227 223 213 213 217 217 196 186 211 202 183 197 198 194 202 200 199 191 188 201 195 187 179 177 185 177 170 175 169 164 166 170 157 130 124 131 155 177 187 216 248 260 250 270 313 343 137 206 241 256 259 294 310 295 290 288 286 280 278 283 287 290 292 293 296 301 303 301 303 304 304 313 323 336 348 348 339 328 324 319 314 309 299 291
211 224 215 216 215 210 206 171 164 183 194 185 185 190 192 201 204 199 192 191 204 205 190 184 191 195 185 171 182 193 176 162 183 166 146 133 107 149 200 207 241 260 270 271 272 269 310 49 117 201 249 244 76 339 308 306 296 287 285 285 285 283 282 284 285 284 287 293 296 302 302 298 302 306 308 321 339 344 338 335 331 322 314 305 298
223 230 196 211 216 214 205 186 183 185 198 197 187 191 199 206 205 193 194 199 204 213 198 191 198 191 182 175 179 188 174 170 183 158 144 139 114 102 88 64 306 291 284 291 305 276 275 352 28 70 291 112 113 285 324 348 327 317 322 313 301 289 282 280 280 278 276 280 285 291 295 293 293 294 292 292 312 334 335 330 326 319 316 312 310
164 247 192 213 220 227 222 202 195 173 183 202 200 205 210 213 208 197 200 202 201 215 211 203 206 175 169 183 185 180 176 175 168 141 132 129 117 119 109 90 55 17 11 5 349 345 3 12 28 43 52 89 105 112 347 11 359 0 357 338 322 303 289 282 278 277 277 279 280 280 282 282 282 284 285 281 280 291 303 306 305 302 304 306 307
137 156 197 216 213 216 226 207 187 160 167 183 193 207 208 209 213 210 209 206 200 211 220 211 210 204 193 189 182 186 196 178 155 141 134 121 121 115 104 95 74 67 58 48 39 35 37 29 35 52 53 71 85 80 29 12 360 2 357 345 340 321 300 287 279 278 278 282 283 280 277 272 269 270 272 271 267 264 262 265 271 275 277 282 289
148 157 172 190 200 208 215 213 186 169 168 161 165 185 185 193 207 215 214 210 203 202 228 223 212 221 221 201 196 201 191 177 160 151 143 126 124 103 86 86 77 76 75 69 71 68 59 46 41 48 43 42 57 59 38 15 360 360 1 357 350 330 311 296 288 284 278 280 281 280 280 278 274 269 264 260 260 259 255 251 251 255 259 264 272
148 145 155 196 227 230 220 217 219 208 174 167 186 191 188 198 199 207 216 219 217 206 208 219 212 224 223 202 201 190 180 179 167 156 150 136 130 114 99 100 91 82 76 70 69 79 72 58 48 52 55 54 54 49 44 38 23 18 18 12 4 350 330 304 297 297 289 287 283 280 278 279 282 280 272 264 260 259 255 250 246 245 250 256 262
151 140 134 144 181 181 164 161 160 190 175 172 187 184 190 203 196 202 212 214 224 214 196 193 195 213 219 204 195 181 182 185 176 170 160 141 137 124 107 105 93 83 79 71 64 72 78 69 59 57 58 58 58 58 56 51 42 37 31 22 18 18 18 17 3 354 356 344 321 304 288 280 282 285 282 275 268 265 260 255 251 250 252 255 259
143 134 120 103 124 145 150 144 132 131 143 154 166 163 172 188 185 191 199 194 209 215 199 186 186 201 205 196 191 182 183 186 181 179 163 141 141 131 114 103 89 81 79 77 72 70 74 73 67 60 57 52 45 55 60 51 46 46 42 37 31 29 31 32 34 39 41 28 3 345 336 329 319 309 306 298 288 283 275 267 261 257 256 254 256
146 133 117 114 136 132 126 127 130 139 138 133 146 153 160 172 175 184 190 186 200 211 194 180 184 190 183 177 183 182 180 183 174 162 156 144 138 136 130 113 100 92 84 82 81 77 73 74 74 70 71 63 36 42 59 49 43 45 44 44 40 35 33 30 31 31 25 15 359 349 354 360 357 350 346 333 318 311 302 291 276 265 258 254 254
152 142 133 152 162 137 114 97 104 123 120 117 129 142 152 167 179 188 197 195 197 200 182 168 163 162 157 159 162 156 162 167 157 158 166 155 137 136 135 123 113 107 99 94 87 82 77 72 73 72 73 71 29 9 38 34 27 34 34 36 36 32 31 32 31 24 10 359 348 337 339 343 345 348 351 347 339 336 339 334 293 269 259 252 252
148 145 140 143 141 124 112 101 104 111 105 108 123 132 139 150 160 166 182 186 175 169 163 151 136 133 137 133 121 120 125 118 139 165 164 151 148 143 135 128 120 113 108 103 91 82 76 70 70 67 66 67 27 344 2 10 5 14 12 14 19 15 16 20 20 17 8 356 346 340 337 336 337 339 341 343 346 350 1 11 339 285 274 267 262
143 140 137 131 125 121 119 119 129 127 112 107 110 112 119 128 138 141 142 147 141 133 135 138 132 120 112 110 104 111 114 111 138 151 138 144 154 148 134 129 126 124 123 117 104 89 75 65 66 63 60 62 18 341 351 1 1 10 10 9 14 11 9 8 7 6 0 350 339 334 331 329 327 327 329 332 336 344 354 3 357 331 314 304 292
145 138 134 135 140 144 145 143 141 134 125 119 111 100 97 106 116 119 116 115 119 120 118 121 123 115 108 110 115 119 113 115 128 126 133 145 154 149 134 130 138 142 140 129 109 89 77 65 60 61 54 49 14 347 352 2 7 9 8 13 17 13 10 6 5 4 0 355 347 339 332 325 322 319 319 320 319 324 330 337 339 332 324 318 311
148 147 144 147 152 151 155 156 148 133 119 113 107 104 103 105 106 107 111 114 115 119 123 123 126 130 127 113 107 106 99 103 114 124 145 152 154 150 137 141 151 140 129 118 99 88 83 67 59 58 30 15 11 358 360 6 9 10 12 20 18 13 10 4 2 6 3 1 357 352 348 338 333 328 325 323 319 317 316 314 314 312 311 310 306
150 148 142 137 135 135 146 156 155 146 131 119 114 116 116 117 115 111 112 115 116 119 129 137 142 142 127 106 100 105 104 107 109 116 129 135 143 142 139 152 148 132 126 114 99 91 83 69 60 60 42 25 16 20 27 6 355 5 16 20 16 10 10 7 4 6 2 0 358 353 352 349 345 342 337 334 328 323 318 311 306 301 297 295 292
159 150 141 135 132 131 139 150 154 155 145 133 131 127 120 121 126 127 129 130 131 132 135 140 141 133 118 101 97 103 105 112 118 117 114 120 138 142 146 165 155 147 157 140 114 106 90 75 56 46 41 23 9 34 57 344 346 11 10 5 13 9 7 8 7 6 2 358 356 352 350 348 346 344 341 339 334 329 324 318 313 306 300 295 290
168 159 151 146 142 142 144 148 152 152 144 137 133 127 125 133 140 145 149 146 143 141 140 141 135 125 115 103 101 114 118 119 121 121 115 116 134 143 141 174 254 146 161 144 124 119 97 86 78 70 54 23 9 22 44 342 2 28 346 345 5 4 0 6 4 1 1 357 353 351 349 346 344 342 339 337 334 331 327 322 318 313 309 305 300
172 164 156 150 147 148 150 152 156 156 150 143 136 131 137 145 146 149 150 144 142 142 140 141 138 131 123 110 105 116 116 112 110 111 109 109 120 117 108 123 33 59 118 144 141 131 112 107 109 94 97 82 4 338 352 356 358 11 353 346 354 352 349 356 1 357 353 351 349 345 343 341 339 336 334 332 329 327 324 321 318 315 312 309 306
173 161 152 152 150 146 149 152 155 156 154 147 141 139 138 135 135 143 143 137 137 138 134 133 131 127 119 111 115 116 108 103 105 104 106 108 110 102 97 101 77 77 99 140 140 134 139 143 87 358 320 51 35 346 349 343 340 1 5 331 334 350 351 342 344 345 341 341 341 337 336 333 331 330 327 325 322 320 318 316 314 313 311 309 307
168 157 151 155 153 146 145 148 151 155 155 148 141 137 135 134 135 136 131 126 130 136 136 133 129 124 117 120 135 131 116 116 123 116 119 119 111 104 98 99 99 90 95 122 122 127 186 286 117 241 312 23 68 304 299 305 329 353 341 319 338 1 355 329 323 324 327 333 332 329 329 326 324 323 320 318 317 315 313 312 310 309 308 307 305
158 157 159 157 154 154 150 149 150 151 149 144 137 136 144 149 147 138 127 127 138 142 139 136 140 143 135 134 151 153 146 143 144 145 152 152 155 153 141 115 114 109 74 118 145 150 230 339 169 236 317 25 296 290 307 319 341 348 304 314 337 347 331 317 315 313 315 323 328 328 327 325 323 321 319 317 314 312 310 309 307 306 305 305 304
158 163 168 164 161 163 159 157 156 152 152 150 143 144 153 154 153 147 139 141 147 145 141 140 152 161 152 151 174 185 181 166 157 164 176 186 212 176 163 177 156 132 70 148 184 151 167 262 285 231 282 344 338 301 305 316 339 353 323 301 308 312 317 321 317 309 308 313 321 323 321 319 318 318 318 316 314 312 310 308 306 305 304 303 303
172 171 174 174 172 171 168 167 164 162 166 164 153 150 155 152 154 158 155 154 152 147 148 151 159 172 166 164 181 194 193 179 173 189 191 195 213 165 172 194 186 177 147 140 167 29 154 253 316 277 292 329 332 322 307 307 325 338 334 315 311 307 308 315 317 309 305 311 316 316 313 309 307 307 309 310 310 310 309 308 307 307 306 305 304
185 182 180 181 183 184 182 180 179 178 179 177 168 167 170 165 163 167 165 163 162 158 162 167 170 177 178 179 189 197 196 188 185 197 197 197 205 195 194 204 202 202 203 181 216 260 256 258 285 298 309 312 303 312 322 314 315 321 323 319 314 310 313 320 323 315 308 312 316 317 317 316 314 312 311 310 310 308 306 305 305 305 306 306 306
194 191 188 187 190 195 195 192 193 191 189 187 183 182 184 179 175 173 170 172 174 172 177 182 184 190 193 195 200 205 208 204 199 200 205 206 206 209 216 219 220 215 213 219 228 243 258 262 265 279 294 290 281 295 311 312 311 314 317 316 310 310 315 316 313 312 310 308 310 316 321 323 321 319 318 316 316 313 308 306 305 303 304 306 308
201 199 197 196 195 197 200 198 197 195 193 192 190 188 186 184 180 177 177 178 179 182 187 190 198 208 212 214 215 218 220 221 220 216 219 224 220 221 226 226 229 232 223 230 242 246 254 266 269 274 283 283 280 285 295 303 305 304 310 314 310 311 315 312 309 312 312 303 302 310 318 318 317 320 321 319 320 319 313 312 313 309 307 308 307
209 207 206 205 203 200 201 201 199 197 193 190 192 191 187 185 183 183 186 185 185 196 199 197 207 214 217 223 227 232 234 234 235 229 227 235 237 235 239 239 238 241 240 237 246 255 258 264 270 275 282 282 278 282 291 295 299 305 311 313 311 311 314 316 314 313 313 307 299 300 306 309 313 318 319 318 318 316 312 314 315 312 313 314 311
218 217 214 213 211 208 207 204 201 199 195 193 197 199 194 190 185 182 183 182 183 196 201 208 220 221 222 226 228 234 240 239 238 236 232 234 238 237 238 243 241 240 242 241 247 261 264 265 272 275 278 278 274 283 296 296 295 302 306 307 308 310 314 317 315 314 315 311 302 298 299 303 310 316 317 315 311 307 308 313 312 312 316 319 317
226 225 224 220 217 214 213 209 205 202 200 203 210 211 204 200 198 196 194 189 187 193 201 213 225 229 233 240 239 236 239 243 243 245 245 243 245 245 239 239 239 236 237 243 251 260 260 264 273 275 275 278 277 283 294 295 294 295 296 301 305 307 312 316 313 312 315 311 305 300 298 302 310 315 314 308 299 298 303 305 304 309 315 317 317
228 228 227 224 221 219 217 212 210 212 216 224 231 230 223 220 223 223 216 208 203 205 217 226 232 234 237 251 259 248 246 255 253 248 249 251 252 253 250 247 245 243 245 251 254 253 256 266 274 272 272 276 276 279 287 290 288 281 280 293 304 306 307 308 305 306 310 309 303 299 298 302 308 310 306 302 298 296 297 295 296 304 311 314 315
235 232 229 227 224 225 224 219 217 225 233 239 241 238 233 231 234 236 233 232 232 232 235 239 241 240 237 241 258 256 251 259 260 254 253 253 251 253 256 255 253 252 255 259 256 244 240 253 269 273 275 276 275 276 275 273 276 281 286 293 301 302 302 303 301 300 301 301 299 298 299 303 306 305 304 304 300 295 295 294 297 303 309 313 314
239 235 235 236 235 233 232 227 223 228 237 241 240 238 237 234 233 233 237 244 247 242 240 244 245 244 241 237 241 249 249 251 258 260 256 253 253 253 254 256 258 260 262 265 262 251 238 234 244 270 274 265 261 262 260 265 280 292 295 296 296 295 297 299 298 297 299 301 301 300 300 303 305 303 300 300 299 297 296 295 297 302 308 312 313
240 236 237 238 237 236 235 233 227 226 234 241 239 233 233 236 235 235 237 241 245 245 245 248 248 245 243 242 239 239 243 246 250 246 240 249 261 263 259 259 259 261 262 263 261 255 247 240 240 247 252 247 249 261 269 280 291 294 294 294 293 295 297 299 301 303 306 309 308 300 296 299 301 298 295 298 301 300 297 296 296 299 303 307 310
244 244 243 240 240 242 242 242 238 232 233 238 236 232 235 238 237 238 238 239 241 240 236 241 244 242 240 239 232 227 234 241 243 237 236 250 263 267 265 265 263 263 265 265 263 259 255 249 245 248 254 258 265 275 282 289 293 293 294 295 296 299 302 303 305 306 307 307 302 294 290 292 295 293 293 297 298 298 297 295 295 297 300 302 305
247 247 246 245 246 246 244 244 242 236 232 233 235 239 240 234 233 237 236 232 232 230 226 229 232 227 225 221 215 225 234 233 232 235 239 250 260 264 266 267 267 269 271 271 266 259 256 255 253 255 262 268 274 280 286 290 291 293 295 296 298 302 302 300 297 297 296 296 295 292 289 291 292 292 293 295 295 295 295 295 296 298 298 298 300
251 249 249 248 247 245 242 241 238 237 237 237 239 242 238 234 237 238 227 217 218 218 215 209 205 208 212 205 206 222 229 225 225 230 234 244 253 258 262 264 267 268 266 261 256 252 251 253 255 259 266 273 278 282 286 288 291 294 295 296 298 299 297 294 293 294 294 294 295 294 290 289 291 292 293 294 294 293 294 297 299 299 296 294 297
252 253 253 252 251 249 246 242 241 242 245 244 241 239 237 235 232 219 204 200 201 201 196 190 197 209 211 208 215 223 222 220 223 226 230 231 229 240 253 259 261 263 260 255 251 252 254 256 260 266 271 276 280 284 287 289 292 294 294 293 293 295 295 294 294 295 295 296 298 296 293 292 294 296 297 298 296 294 295 297 297 296 296 296 300
254 254 254 255 254 251 248 247 248 249 249 247 243 237 231 224 210 195 190 192 192 191 188 188 200 210 205 205 215 219 216 216 214 215 224 212 197 211 233 235 234 249 255 257 258 259 262 267 271 274 276 279 283 287 290 292 295 296 296 297 298 302 300 296 296 298 297 298 294 289 293 299 300 298 300 301 300 298 298 298 297 297 297 297 301